SCP
0 0 0 0 0 0 0 0 0 0 0 0 0 0 0 0 0 0 0 0 0 0 0 0 0 0 0 0 0 0 0 0 0 0 0 0 0 0 0 0 0 0 0 0
0 0 0 0 0 0 0 0 0 0 0 0 0 0 0 0 0 0 0 0 0 0 0 0 0 0 0 0 0 0 0 0 0 0 0 0 0 0 0 0 0 0 0 0
0 0 0 0 0 0 0 0 0 0 0 0 0 0 0 0 0 0 0 0 0 0 0 0 0 0 0 0 0 0 0 0 0 0 0 0 0 0 0 0 0 0 0 0
0 0 0 0 0 0 0 0 0 0 0 0 0 0 0 0 0 0 0 0 0 0 0 0 0 0 0 0 0 0 0 0 0 0 0 0 0 0 0 0 0 0 0 0
0 0 0 0 0 0 0 0 0 0 0 0 0 0 0 0 0 0 0 0 0 0 0 0 0 0 0 0 0 0 0 0 0 0 0 0 0 0 0 0 0 0 0 0
0 0 0 0 0 0 0 0 0 0 0 0 0 0 0 0 0 0 0 0 0 0 0 0 0 0 0 0 0 0 0 0 0 0 0 0 0 0 0 0 0 0 0 0
0 0 0 0 0 0 0 0 0 0 0 0 0 0 0 0 0 0 0 0 0 0 0 0 0 0 0 0 0 0 0 0 0 0 0 0 0 0 0 0 0 0 0 0
0 0 0 0 0 0 0 0 0 0 0 0 0 0 0 0 0 0 0 0 0 0 0 0 0 0 0 0 0 0 0 0 0 0 0 0 0 0 0 0 0 0 0 0
0 0 0 0 0 0 0 0 0 0 0 0 0 0 0 0 0 0 0 0 0 0 0 0 0 0 0 0 0 0 0 0 0 0 0 0 0 0 0 0 0 0 0 0
0 0 0 0 0 0 0 0 0 0 0 0 0 0 0 0 0 0 0 0 0 0 0 0 0 0 0 0 0 0 0 0 0 0 0 0 0 0 0 0 0 0 0 0
0 0 0 0 0 0 0 0 0 0 0 0 0 0 0 0 0 0 0 0 0 0 0 0 0 0 0 0 0 0 0 0 0 0 0 0 0 0 0 0 0 0 0 0
0 0 0 0 0 0 0 0 0 0 0 0 0 0 0 0 0 0 0 0 0 0 0 0 0 0 0 0 0 0 0 0 0 0 0 0 0 0 0 0 0 0 0 0
0 0 0 0 0 0 0 0 0 0 0 0 0 0 0 0 0 0 0 0 0 0 0 0 0 0 0 0 0 0 0 0 0 0 0 0 0 0 0 0 0 0 0 0
0 0 0 0 0 0 0 0 0 0 0 0 0 0 0 0 0 0 0 0 0 0 0 0 0 0 0 0 0 0 0 0 0 0 0 0 0 0 0 0 0 0 0 0
0 0 0 0 0 0 0 0 0 0 0 0 0 0 0 0 0 0 0 0 0 0 0 0 0 0 0 0 0 0 0 0 0 0 0 0 0 0 0 0 0 0 0 0
0 0 0 0 0 0 0 0 0 0 0 0 0 0 0 0 0 0 0 0 0 0 0 0 0 0 0 0 0 0 0 0 0 0 0 0 0 0 0 0 0 0 0 0
0 0 0 0 0 0 0 0 0 0 0 0 0 0 0 0 0 0 0 0 0 0 0 0 0 0 0 0 0 0 0 0 0 0 0 0 0 0 0 0 0 0 0 0
0 0 0 0 0 0 0 0 0 0 0 0 0 0 0 0 0 0 0 0 0 0 0 0 0 0 0 0 0 0 0 0 0 0 0 0 0 0 0 0 0 0 0 0
0 0 0 0 0 0 0 0 0 0 0 0 0 0 0 0 0 0 0 0 0 0 0 0 0 0 0 0 0 0 0 0 0 0 0 0 0 0 0 0 0 0 0 0
0 0 0 0 0 0 0 0 0 0 0 0 0 0 0 0 0 0 0 0 0 0 0 0 0 0 0 0 0 0 0 0 0 0 0 0 0 0 0 0 0 0 0 0
0 0 0 0 0 0 0 0 0 0 0 0 0 0 0 0 0 0 0 0 0 0 0 0 0 0 0 0 0 0 0 0 0 0 0 0 0 0 0 0 0 0 0 0
0 0 0 0 0 0 0 0 0 0 0 0 0 0 0 0 0 0 0 0 0 0 0 0 0 0 0 0 0 0 0 0 0 0 0 0 0 0 0 0 0 0 0 0
0 0 0 0 0 0 0 0 0 0 0 0 0 0 0 0 0 0 0 0 0 0 0 0 0 0 0 0 0 0 0 0 0 0 0 0 0 0 0 0 0 0 0 0
0 0 0 0 0 0 0 0 0 0 0 0 0 0 0 0 0 0 0 0 0 0 0 0 0 0 0 0 0 0 0 0 0 0 0 0 0 0 0 0 0 0 0 0
0 0 0 0 0 0 0 0 0 0 0 0 0 0 0 0 0 0 0 0 0 0 0 0 0 0 0 0 0 0 0 0 0 0 0 0 0 0 0 0 0 0 0 0
0 0 0 0 0 0 0 0 0 0 0 0 0 0 0 0 0 0 0 0 0 0 0 0 0 0 0 0 0 0 0 0 0 0 0 0 0 0 0 0 0 0 0 0
0 0 0 0 0 0 0 0 0 0 0 0 0 0 0 0 0 0 0 0 0 0 0 0 0 0 0 0 0 0 0 0 0 0 0 0 0 0 0 0 0 0 0 0
Wind_Speed_500mb
17 23 22 23 26 27 30 29 28 32 34 31 24 22 26 18 25 32 35 35 32 39 34 28 30 33 37 37 40 43 42 42 44 37 33 30 32 34 37 39 39 38 38 38
9 14 21 29 33 35 33 21 26 27 27 19 21 20 22 35 41 36 28 28 36 33 34 34 37 41 39 40 42 43 43 46 44 36 29 32 32 35 38 38 38 37 38 40
8 21 26 12 6 6 14 16 15 19 25 15 21 30 34 32 26 21 19 34 33 34 36 40 42 44 45 44 47 49 50 48 41 35 33 33 34 38 37 39 38 40 40 40
6 11 6 11 23 27 20 18 20 19 18 21 32 38 28 15 17 19 31 30 34 38 42 44 50 53 51 53 54 58 56 50 40 36 38 35 36 37 38 39 40 41 41 39
3 10 27 24 8 13 18 27 22 12 19 35 45 36 6 9 20 30 26 34 39 41 46 51 55 58 57 57 61 61 57 48 39 39 35 35 35 36 38 40 41 43 38 39
5 6 8 5 3 8 13 23 10 16 34 38 36 20 17 31 34 29 33 38 45 48 53 55 59 58 60 63 64 63 57 47 40 38 37 30 32 36 38 41 43 43 42 46
12 11 15 16 4 8 10 7 24 24 26 17 15 16 31 29 29 33 38 45 48 53 55 57 57 59 61 65 66 63 54 40 39 35 28 27 30 35 40 43 43 41 53 50
7 7 12 7 12 6 15 41 21 2 13 19 21 26 23 27 34 39 46 51 54 56 57 57 56 58 62 66 63 56 41 34 35 24 21 26 32 37 39 42 37 41 45 48
17 11 24 19 31 23 16 13 9 12 15 20 21 23 30 35 40 47 52 58 57 56 56 55 57 60 63 61 54 50 51 35 23 22 23 29 31 38 40 35 33 39 38 41
16 14 32 34 34 5 5 4 9 14 17 17 23 27 35 42 48 54 57 59 56 54 55 58 59 61 59 50 44 34 36 32 27 24 25 29 29 34 29 31 35 32 38 39
26 40 38 25 8 13 18 7 13 10 15 21 25 35 45 51 54 56 57 54 54 53 56 58 61 58 52 38 29 36 30 29 26 23 23 26 26 25 27 28 40 43 36 34
20 29 7 18 14 18 12 8 6 13 19 24 35 48 52 53 53 54 54 56 56 58 58 59 55 49 36 27 33 29 30 22 22 23 23 24 20 22 31 34 38 45 45 46
27 11 5 6 8 10 5 3 10 18 26 38 45 49 52 52 54 56 57 56 57 58 54 50 50 36 26 31 28 34 28 22 18 20 18 14 20 24 25 26 36 40 42 50
2 5 7 10 6 4 3 9 18 26 34 41 47 48 49 53 56 56 55 54 54 51 46 46 37 28 34 22 25 30 23 20 17 16 16 17 22 20 20 25 27 27 34 43
2 9 11 12 9 5 10 19 27 35 40 43 42 45 46 51 54 57 56 54 48 48 39 38 33 29 23 25 26 23 20 17 22 16 18 22 21 20 20 23 24 28 29 27
14 17 15 5 3 11 19 26 32 37 39 42 42 43 46 53 55 55 52 43 55 53 47 43 33 27 23 20 19 20 19 25 17 14 17 20 19 19 19 22 22 25 26 28
20 11 3 5 12 19 23 27 30 35 38 41 43 61 64 63 65 54 58 55 51 46 46 38 29 20 30 22 22 16 21 21 23 18 17 20 18 20 20 21 21 23 25 35
11 7 3 10 17 22 25 27 29 33 38 51 59 61 62 62 65 67 68 50 44 46 47 33 25 25 31 18 23 20 20 16 21 22 21 21 22 20 20 22 22 23 22 25
3 6 12 15 19 21 26 31 33 43 49 54 58 59 61 63 58 61 57 47 44 45 40 28 23 29 28 22 24 17 21 19 20 22 23 26 23 23 23 23 24 23 22 20
7 13 17 22 24 29 37 41 41 45 49 53 54 57 63 57 53 54 51 49 42 39 35 31 27 29 26 19 23 17 20 24 22 20 22 25 24 25 25 24 26 25 24 23
23 27 30 30 33 35 39 39 41 47 51 51 52 56 58 56 52 49 50 46 42 39 28 25 26 22 17 24 24 21 23 21 17 18 21 25 27 26 25 23 25 27 25 25
25 29 34 32 37 43 40 41 43 50 52 52 51 53 51 53 51 49 47 44 42 37 30 26 26 22 20 31 23 21 25 21 20 21 22 21 26 27 24 24 24 26 26 25
36 35 36 37 40 41 42 44 46 49 55 52 50 45 46 51 48 47 54 46 41 25 25 26 26 29 30 31 23 21 25 27 23 22 23 22 24 24 25 25 25 25 23 23
34 34 37 39 41 41 43 36 40 51 52 45 43 39 45 51 50 38 47 48 32 27 29 28 29 29 31 29 26 27 30 30 30 28 27 27 30 30 27 26 26 25 25 26
40 41 43 40 35 30 31 36 38 40 45 44 44 46 48 48 45 46 48 41 32 29 32 30 29 30 31 29 29 32 32 32 32 29 29 26 27 28 31 29 27 27 27 26
36 34 35 36 36 35 33 33 41 43 47 53 47 50 52 51 49 47 42 36 33 35 38 38 40 40 37 31 33 36 34 33 31 30 30 30 30 26 28 30 29 30 30 29
36 38 36 35 33 31 33 35 47 55 57 51 51 53 54 56 53 50 42 40 39 41 45 48 50 49 45 43 35 38 35 33 32 33 32 32 32 31 30 30 30 30 29 30
Wind_Direction_500mb
299 303 305 296 286 276 267 266 263 275 285 307 334 357 337 324 328 323 322 322 323 315 313 310 309 309 308 307 312 314 312 312 312 309 306 304 309 312 314 312 311 310 309 308
273 296 311 306 289 279 265 276 288 296 291 3 330 323 328 331 317 321 329 317 314 313 309 310 310 309 307 307 312 316 312 310 310 302 300 305 308 313 313 312 312 311 311 309
279 337 323 284 258 334 303 300 264 276 295 313 330 359 340 325 314 316 304 309 305 308 308 309 309 309 306 307 311 312 308 304 306 297 296 302 306 312 312 313 313 312 311 309
297 311 309 42 310 299 280 292 291 308 347 10 348 332 338 326 329 318 313 310 307 311 311 310 309 308 304 303 307 309 308 307 297 289 290 298 305 309 313 314 313 313 312 311
261 287 292 299 55 7 334 306 312 357 359 330 332 322 323 356 329 315 305 307 310 311 311 311 312 311 309 307 306 306 306 307 303 289 284 294 304 309 313 313 314 313 311 310
168 258 269 54 50 357 315 278 51 332 335 333 326 317 302 328 319 315 311 309 311 312 311 313 314 312 310 308 309 305 306 301 295 283 284 288 300 309 312 313 313 310 303 310
218 248 267 291 28 307 286 348 325 327 326 328 301 280 302 312 311 307 308 310 314 313 314 314 315 314 312 310 309 309 308 300 293 279 284 295 300 309 312 314 315 307 312 313
212 252 277 174 203 234 315 306 336 343 301 270 302 303 298 307 311 311 312 316 316 315 313 315 317 318 315 312 314 316 315 302 284 300 294 294 302 309 312 315 314 310 311 316
192 237 295 282 286 298 306 324 328 311 312 305 297 301 310 311 314 316 315 316 315 314 315 317 319 320 317 317 314 310 309 315 302 295 285 296 305 311 315 313 312 313 318 318
280 264 294 295 307 333 32 305 240 246 280 300 301 310 311 316 317 316 316 316 316 316 316 317 320 320 318 317 317 315 316 314 311 303 300 303 306 311 312 312 311 319 319 317
258 286 310 288 71 3 309 260 260 278 295 302 305 311 316 316 316 316 315 317 317 314 314 316 318 319 317 313 317 317 316 314 310 304 304 302 308 312 310 307 310 320 323 321
268 299 280 286 298 306 255 241 275 304 310 307 311 314 314 313 315 316 317 315 314 315 315 316 317 315 315 308 315 312 317 320 306 304 296 303 309 310 313 313 318 328 330 331
301 309 268 274 305 240 235 245 302 312 314 314 313 314 312 310 312 314 313 314 315 314 313 311 313 312 304 308 311 314 315 307 310 309 302 302 307 313 318 320 327 328 328 330
299 169 330 192 196 215 246 302 311 311 312 313 314 313 314 312 312 313 314 314 312 309 309 313 309 300 306 302 301 310 315 315 311 296 287 293 305 311 316 321 327 326 325 325
231 263 246 190 172 233 299 315 316 314 313 314 316 315 316 316 315 314 313 310 307 310 312 311 300 287 295 298 309 308 312 294 288 282 295 310 316 311 317 322 323 325 327 326
149 151 145 156 304 317 320 317 313 313 315 316 317 318 318 314 312 311 310 307 309 310 316 311 298 295 287 298 297 296 294 296 298 286 301 307 305 305 314 319 322 322 325 321
164 175 163 312 317 315 312 309 310 311 316 317 317 318 319 320 320 320 314 310 309 306 317 307 296 287 283 301 287 301 291 285 287 289 286 295 304 307 304 310 317 321 320 313
156 161 291 307 304 304 304 309 311 310 313 316 318 320 322 323 321 319 320 316 306 305 314 299 287 291 300 285 271 285 289 275 278 278 286 296 298 302 301 308 312 315 315 318
161 283 294 296 298 297 305 308 307 310 316 320 320 321 320 320 324 326 327 319 306 306 306 301 290 299 305 284 281 290 284 285 275 275 280 293 305 303 300 301 303 309 311 313
287 295 294 296 296 303 307 311 310 313 320 318 315 316 320 322 325 324 324 317 309 302 296 281 288 300 308 296 293 294 285 296 285 279 280 291 301 300 299 300 305 310 310 307
304 305 303 304 303 304 306 307 307 313 316 314 311 313 318 318 323 328 325 315 312 304 287 271 277 286 284 281 288 288 292 299 283 281 282 286 294 302 300 298 304 305 306 304
301 298 301 300 299 305 308 310 311 312 314 312 308 314 319 322 321 321 320 312 314 299 277 277 283 281 262 283 287 273 282 293 280 278 282 284 287 293 298 297 297 297 298 303
293 292 293 297 303 305 307 310 309 310 312 311 310 315 321 322 321 318 318 317 311 290 271 273 272 275 277 287 293 284 276 284 283 281 282 284 289 291 297 299 296 296 294 296
290 290 293 300 300 301 305 313 303 311 315 315 313 306 317 324 316 317 313 309 299 273 274 277 289 293 283 283 286 281 273 271 275 274 274 276 284 293 295 297 300 301 301 300
292 294 295 299 297 297 300 302 307 313 309 313 311 306 314 319 311 310 311 305 288 278 280 276 281 292 293 285 280 280 275 269 269 268 267 268 267 273 279 285 293 298 302 300
290 285 286 283 279 283 291 304 305 306 308 312 310 312 315 320 316 312 306 301 287 283 283 281 282 284 289 300 279 274 272 269 268 269 271 272 274 272 269 274 284 290 295 297
288 288 288 285 279 279 286 295 303 312 315 312 304 309 311 313 317 318 301 297 289 285 287 284 280 278 283 290 282 271 274 269 267 269 273 275 273 272 274 277 281 283 282 287
Wind_Speed_850mb
17 23 22 23 26 27 30 29 28 32 34 31 24 22 26 18 25 32 35 35 32 39 34 28 30 33 37 37 40 43 42 42 44 37 33 30 32 34 37 39 39 38 38 38
9 14 21 29 33 35 33 21 26 27 27 19 21 20 22 35 41 36 28 28 36 33 34 34 37 41 39 40 42 43 43 46 44 36 29 32 32 35 38 38 38 37 38 40
8 21 26 12 6 6 14 16 15 19 25 15 21 30 34 32 26 21 19 34 33 34 36 40 42 44 45 44 47 49 50 48 41 35 33 33 34 38 37 39 38 40 40 40
6 11 6 11 23 27 20 18 20 19 18 21 32 38 28 15 17 19 31 30 34 38 42 44 50 53 51 53 54 58 56 50 40 36 38 35 36 37 38 39 40 41 41 39
3 10 27 24 8 13 18 27 22 12 19 35 45 36 6 9 20 30 26 34 39 41 46 51 55 58 57 57 61 61 57 48 39 39 35 35 35 36 38 40 41 43 38 39
5 6 8 5 3 8 13 23 10 16 34 38 36 20 17 31 34 29 33 38 45 48 53 55 59 58 60 63 64 63 57 47 40 38 37 30 32 36 38 41 43 43 42 46
12 11 15 16 4 8 10 7 24 24 26 17 15 16 31 29 29 33 38 45 48 53 55 57 57 59 61 65 66 63 54 40 39 35 28 27 30 35 40 43 43 41 53 50
7 7 12 7 12 6 15 41 21 2 13 19 21 26 23 27 34 39 46 51 54 56 57 57 56 58 62 66 63 56 41 34 35 24 21 26 32 37 39 42 37 41 45 48
17 11 24 19 31 23 16 13 9 12 15 20 21 23 30 35 40 47 52 58 57 56 56 55 57 60 63 61 54 50 51 35 23 22 23 29 31 38 40 35 33 39 38 41
16 14 32 34 34 5 5 4 9 14 17 17 23 27 35 42 48 54 57 59 56 54 55 58 59 61 59 50 44 34 36 32 27 24 25 29 29 34 29 31 35 32 38 39
26 40 38 25 8 13 18 7 13 10 15 21 25 35 45 51 54 56 57 54 54 53 56 58 61 58 52 38 29 36 30 29 26 23 23 26 26 25 27 28 40 43 36 34
20 29 7 18 14 18 12 8 6 13 19 24 35 48 52 53 53 54 54 56 56 58 58 59 55 49 36 27 33 29 30 22 22 23 23 24 20 22 31 34 38 45 45 46
27 11 5 6 8 10 5 3 10 18 26 38 45 49 52 52 54 56 57 56 57 58 54 50 50 36 26 31 28 34 28 22 18 20 18 14 20 24 25 26 36 40 42 50
2 5 7 10 6 4 3 9 18 26 34 41 47 48 49 53 56 56 55 54 54 51 46 46 37 28 34 22 25 30 23 20 17 16 16 17 22 20 20 25 27 27 34 43
2 9 11 12 9 5 10 19 27 35 40 43 42 45 46 51 54 57 56 54 48 48 39 38 33 29 23 25 26 23 20 17 22 16 18 22 21 20 20 23 24 28 29 27
14 17 15 5 3 11 19 26 32 37 39 42 42 43 46 53 55 55 52 43 55 53 47 43 33 27 23 20 19 20 19 25 17 14 17 20 19 19 19 22 22 25 26 28
20 11 3 5 12 19 23 27 30 35 38 41 43 61 64 63 65 54 58 55 51 46 46 38 29 20 30 22 22 16 21 21 23 18 17 20 18 20 20 21 21 23 25 35
11 7 3 10 17 22 25 27 29 33 38 51 59 61 62 62 65 67 68 50 44 46 47 33 25 25 31 18 23 20 20 16 21 22 21 21 22 20 20 22 22 23 22 25
3 6 12 15 19 21 26 31 33 43 49 54 58 59 61 63 58 61 57 47 44 45 40 28 23 29 28 22 24 17 21 19 20 22 23 26 23 23 23 23 24 23 22 20
7 13 17 22 24 29 37 41 41 45 49 53 54 57 63 57 53 54 51 49 42 39 35 31 27 29 26 19 23 17 20 24 22 20 22 25 24 25 25 24 26 25 24 23
23 27 30 30 33 35 39 39 41 47 51 51 52 56 58 56 52 49 50 46 42 39 28 25 26 22 17 24 24 21 23 21 17 18 21 25 27 26 25 23 25 27 25 25
25 29 34 32 37 43 40 41 43 50 52 52 51 53 51 53 51 49 47 44 42 37 30 26 26 22 20 31 23 21 25 21 20 21 22 21 26 27 24 24 24 26 26 25
36 35 36 37 40 41 42 44 46 49 55 52 50 45 46 51 48 47 54 46 41 25 25 26 26 29 30 31 23 21 25 27 23 22 23 22 24 24 25 25 25 25 23 23
34 34 37 39 41 41 43 36 40 51 52 45 43 39 45 51 50 38 47 48 32 27 29 28 29 29 31 29 26 27 30 30 30 28 27 27 30 30 27 26 26 25 25 26
40 41 43 40 35 30 31 36 38 40 45 44 44 46 48 48 45 46 48 41 32 29 32 30 29 30 31 29 29 32 32 32 32 29 29 26 27 28 31 29 27 27 27 26
36 34 35 36 36 35 33 33 41 43 47 53 47 50 52 51 49 47 42 36 33 35 38 38 40 40 37 31 33 36 34 33 31 30 30 30 30 26 28 30 29 30 30 29
36 38 36 35 33 31 33 35 47 55 57 51 51 53 54 56 53 50 42 40 39 41 45 48 50 49 45 43 35 38 35 33 32 33 32 32 32 31 30 30 30 30 29 30
Wind_Direction_850mb
299 303 305 296 286 276 267 266 263 275 285 307 334 357 337 324 328 323 322 322 323 315 313 310 309 309 308 307 312 314 312 312 312 309 306 304 309 312 314 312 311 310 309 308
273 296 311 306 289 279 265 276 288 296 291 3 330 323 328 331 317 321 329 317 314 313 309 310 310 309 307 307 312 316 312 310 310 302 300 305 308 313 313 312 312 311 311 309
279 337 323 284 258 334 303 300 264 276 295 313 330 359 340 325 314 316 304 309 305 308 308 309 309 309 306 307 311 312 308 304 306 297 296 302 306 312 312 313 313 312 311 309
297 311 309 42 310 299 280 292 291 308 347 10 348 332 338 326 329 318 313 310 307 311 311 310 309 308 304 303 307 309 308 307 297 289 290 298 305 309 313 314 313 313 312 311
261 287 292 299 55 7 334 306 312 357 359 330 332 322 323 356 329 315 305 307 310 311 311 311 312 311 309 307 306 306 306 307 303 289 284 294 304 309 313 313 314 313 311 310
168 258 269 54 50 357 315 278 51 332 335 333 326 317 302 328 319 315 311 309 311 312 311 313 314 312 310 308 309 305 306 301 295 283 284 288 300 309 312 313 313 310 303 310
218 248 267 291 28 307 286 348 325 327 326 328 301 280 302 312 311 307 308 310 314 313 314 314 315 314 312 310 309 309 308 300 293 279 284 295 300 309 312 314 315 307 312 313
212 252 277 174 203 234 315 306 336 343 301 270 302 303 298 307 311 311 312 316 316 315 313 315 317 318 315 312 314 316 315 302 284 300 294 294 302 309 312 315 314 310 311 316
192 237 295 282 286 298 306 324 328 311 312 305 297 301 310 311 314 316 315 316 315 314 315 317 319 320 317 317 314 310 309 315 302 295 285 296 305 311 315 313 312 313 318 318
280 264 294 295 307 333 32 305 240 246 280 300 301 310 311 316 317 316 316 316 316 316 316 317 320 320 318 317 317 315 316 314 311 303 300 303 306 311 312 312 311 319 319 317
258 286 310 288 71 3 309 260 260 278 295 302 305 311 316 316 316 316 315 317 317 314 314 316 318 319 317 313 317 317 316 314 310 304 304 302 308 312 310 307 310 320 323 321
268 299 280 286 298 306 255 241 275 304 310 307 311 314 314 313 315 316 317 315 314 315 315 316 317 315 315 308 315 312 317 320 306 304 296 303 309 310 313 313 318 328 330 331
301 309 268 274 305 240 235 245 302 312 314 314 313 314 312 310 312 314 313 314 315 314 313 311 313 312 304 308 311 314 315 307 310 309 302 302 307 313 318 320 327 328 328 330
299 169 330 192 196 215 246 302 311 311 312 313 314 313 314 312 312 313 314 314 312 309 309 313 309 300 306 302 301 310 315 315 311 296 287 293 305 311 316 321 327 326 325 325
231 263 246 190 172 233 299 315 316 314 313 314 316 315 316 316 315 314 313 310 307 310 312 311 300 287 295 298 309 308 312 294 288 282 295 310 316 311 317 322 323 325 327 326
149 151 145 156 304 317 320 317 313 313 315 316 317 318 318 314 312 311 310 307 309 310 316 311 298 295 287 298 297 296 294 296 298 286 301 307 305 305 314 319 322 322 325 321
164 175 163 312 317 315 312 309 310 311 316 317 317 318 319 320 320 320 314 310 309 306 317 307 296 287 283 301 287 301 291 285 287 289 286 295 304 307 304 310 317 321 320 313
156 161 291 307 304 304 304 309 311 310 313 316 318 320 322 323 321 319 320 316 306 305 314 299 287 291 300 285 271 285 289 275 278 278 286 296 298 302 301 308 312 315 315 318
161 283 294 296 298 297 305 308 307 310 316 320 320 321 320 320 324 326 327 319 306 306 306 301 290 299 305 284 281 290 284 285 275 275 280 293 305 303 300 301 303 309 311 313
287 295 294 296 296 303 307 311 310 313 320 318 315 316 320 322 325 324 324 317 309 302 296 281 288 300 308 296 293 294 285 296 285 279 280 291 301 300 299 300 305 310 310 307
304 305 303 304 303 304 306 307 307 313 316 314 311 313 318 318 323 328 325 315 312 304 287 271 277 286 284 281 288 288 292 299 283 281 282 286 294 302 300 298 304 305 306 304
301 298 301 300 299 305 308 310 311 312 314 312 308 314 319 322 321 321 320 312 314 299 277 277 283 281 262 283 287 273 282 293 280 278 282 284 287 293 298 297 297 297 298 303
293 292 293 297 303 305 307 310 309 310 312 311 310 315 321 322 321 318 318 317 311 290 271 273 272 275 277 287 293 284 276 284 283 281 282 284 289 291 297 299 296 296 294 296
290 290 293 300 300 301 305 313 303 311 315 315 313 306 317 324 316 317 313 309 299 273 274 277 289 293 283 283 286 281 273 271 275 274 274 276 284 293 295 297 300 301 301 300
292 294 295 299 297 297 300 302 307 313 309 313 311 306 314 319 311 310 311 305 288 278 280 276 281 292 293 285 280 280 275 269 269 268 267 268 267 273 279 285 293 298 302 300
290 285 286 283 279 283 291 304 305 306 308 312 310 312 315 320 316 312 306 301 287 283 283 281 282 284 289 300 279 274 272 269 268 269 271 272 274 272 269 274 284 290 295 297
288 288 288 285 279 279 286 295 303 312 315 312 304 309 311 313 317 318 301 297 289 285 287 284 280 278 283 290 282 271 274 269 267 269 273 275 273 272 274 277 281 283 282 287